Weather in Bichurino

Russia / Chuvash Republic     55°51′50″N   47°47′21″E
temp.,
°C
wind,
m/s
gust,
m/s
humid.,
%
clouds,
%
prec.,
mm/h
press.,
hPa
HPBL,
m
12 april, mon
mon1200:00+1ne2596100 0.0 103578
03:00+1ne2589100 0.0 103689
06:000ne2793100 0.0 1037132
09:00+2ene31099100 0.0 1038225
12:00+4ene4899100 0.0 1038171
15:00+5e3896100 0.0 1038186
18:00+5ene41098100 0.0 1037171
21:00+4e359399 0.0 103863
13 april, tue
tue1300:00+3ese499197 0.0 1037147
03:00+4se3796100 0.0 103791
06:00+4se3697100 0.0 1036103
09:00+10sse489092 0.0 1035246
12:00+14sse577593 0.0 1034486
15:00+16s576673 0.0 1033792
18:00+12sse487771 0.0 1031120
21:00+9s46825 0.0 103279
14 april, wed
wed1400:00+8s35845 0.0 103151
03:00+7s34835 0.0 103138
06:00+7s347555 0.0 103059
09:00+13sse465432 0.0 1030340
12:00+16sse57425 0.0 1028848
15:00+17sse56445 0.0 10261070
18:00+14sse36655 0.0 102598
21:00+10sse35803 0.0 102580
15 april, thu
thu1500:00+9s34865 0.0 102455
03:00+8s22875 0.0 102321
06:00+8s23885 0.0 102348
09:00+13s34690 0.0 1022421
12:00+17s34552 0.0 10211144
15:00+18ssw33472 0.0 10191516
18:00+15sse335653 0.0 101938
21:00+13s226395 0.0 101934
16 april, fri
fri1600:00+12wsw226865 0.0 101813
03:00+10wnw227342 0.0 101812
06:00+9nnw237776 0.0 101861
09:00+13n456368 0.0 1019445
12:00+15nne665534 0.0 10191043
15:00+13nne986350 0.0 10211025
18:00+8ne6107232 0.0 1024833
21:00+5ne36794 0.0 1025140